Le nostre stazioni meteo in Italia

Pubblicità
Il mio iltempo24.it
Parma, Italia (16086): Temperatura & dewpoint: 02.07.2020 13:00:00 - 08.07.2020 13:00:00 (CEST)Parma, Italia (16086): velocità del vento: 02.07.2020 13:00:00 - 08.07.2020 13:00:00 (CEST)Parma, Italia (16086): direzione del vento: 02.07.2020 13:00:00 - 08.07.2020 13:00:00 (CEST)Parma, Italia (16086): reduced air pressure: 02.07.2020 13:00:00 - 08.07.2020 13:00:00 (CEST)Parma, Italia (16086): precipitazioni: 02.07.2020 13:00:00 - 08.07.2020 13:00:00 (CEST)
Data & Tempo tt [°C] td [°C] ff [km/h] ff [kn] dd ppp [hPa] rr [mm]
08.07.2020 13:00:00 - - - - - - -
08.07.2020 12:00:00 25,4 8,0 11 6 ENE 1018,3 0,0
08.07.2020 11:00:00 24,2 9,0 9 5 E 1018,5 0,0
08.07.2020 10:00:00 23,3 10,0 7 4 NE 1018,8 0,0
08.07.2020 09:00:00 22,0 9,5 3 2 E 1018,7 0,0
08.07.2020 08:00:00 20,2 12,2 3 2 NNE 1018,5 0,0
08.07.2020 07:00:00 18,2 12,0 - - - 1018,2 0,0
08.07.2020 06:00:00 17,5 12,0 3 1 NNE 1018,2 0,0
08.07.2020 05:00:00 18,0 12,0 2 1 NNE 1017,9 0,0
08.07.2020 04:00:00 18,8 11,6 2 1 NE 1017,9 0,0
08.07.2020 03:00:00 18,8 10,9 2 1 NE 1018,1 0,0
08.07.2020 02:00:00 19,7 11,5 4 2 S 1018,0 0,0
08.07.2020 01:00:00 20,5 9,7 5 3 SE 1018,0 0,0
08.07.2020 00:00:00 20,8 8,8 10 6 E 1017,7 0,0
07.07.2020 23:00:00 21,5 9,1 8 4 E 1017,2 0,0
07.07.2020 22:00:00 22,8 9,2 9 5 ENE 1016,6 0,0
07.07.2020 21:00:00 24,0 8,8 11 6 E 1015,9 0,0
07.07.2020 20:00:00 25,2 9,1 13 7 E 1015,7 0,0
07.07.2020 19:00:00 25,6 10,2 13 7 E 1015,7 0,0
07.07.2020 18:00:00 25,9 10,1 12 7 ENE 1015,8 0,0
07.07.2020 17:00:00 25,6 11,4 14 8 E 1016,2 0,0
07.07.2020 16:00:00 25,2 11,7 14 8 E 1016,4 0,0
07.07.2020 15:00:00 25,0 11,6 16 8 E 1016,8 0,0
07.07.2020 14:00:00 24,2 12,2 18 10 E 1016,9 0,0
07.07.2020 13:00:00 23,3 12,9 16 9 E 1017,5 0,0
07.07.2020 12:00:00 23,0 12,9 23 13 E 1017,4 0,0
07.07.2020 11:00:00 21,8 13,9 20 11 E 1017,2 0,0
07.07.2020 10:00:00 21,0 13,9 19 10 E 1016,8 0,0
07.07.2020 09:00:00 19,4 13,8 22 12 ENE 1016,3 0,0
07.07.2020 08:00:00 19,6 15,0 20 11 ENE 1015,3 0,0
07.07.2020 07:00:00 20,7 16,7 20 11 ENE 1014,0 0,0
07.07.2020 06:00:00 22,1 16,4 20 11 ENE 1012,4 0,0
07.07.2020 05:00:00 23,2 17,2 21 11 E 1010,8 0,0
07.07.2020 04:00:00 24,5 17,0 21 11 E 1009,4 0,0
07.07.2020 03:00:00 25,8 16,1 7 4 N 1008,4 0,0
07.07.2020 02:00:00 25,9 14,7 7 4 OSO 1007,7 0,0
07.07.2020 01:00:00 26,7 14,1 9 5 SO 1007,0 0,0
07.07.2020 00:00:00 27,3 13,6 6 4 SO 1006,9 0,0
06.07.2020 23:00:00 28,5 14,3 4 2 O 1006,5 0,0
06.07.2020 22:00:00 28,8 16,0 9 5 SO 1006,1 0,0
06.07.2020 21:00:00 31,6 13,8 7 4 SO 1005,6 0,0
06.07.2020 20:00:00 32,2 15,7 7 4 E 1005,6 0,0
06.07.2020 19:00:00 32,6 16,0 9 5 E 1005,8 0,0
06.07.2020 18:00:00 33,1 15,6 12 6 ENE 1006,3 0,0
06.07.2020 17:00:00 32,9 15,4 13 7 E 1006,8 0,0
06.07.2020 16:00:00 32,4 15,0 13 7 E 1007,6 0,0
06.07.2020 15:00:00 31,6 14,7 13 7 NE 1008,5 0,0
06.07.2020 14:00:00 31,4 15,4 11 6 ENE 1009,0 0,0
06.07.2020 13:00:00 31,1 15,5 7 4 ENE 1009,9 0,0
06.07.2020 12:00:00 30,6 16,2 8 4 ENE 1010,5 0,0
06.07.2020 11:00:00 28,8 17,0 6 4 N 1011,2 0,0
06.07.2020 10:00:00 27,9 17,1 5 3 NNE 1011,3 0,0
06.07.2020 09:00:00 27,0 16,9 3 2 O 1011,8 0,0
06.07.2020 08:00:00 24,1 16,6 5 3 SSO 1011,9 0,0
06.07.2020 07:00:00 22,3 16,3 7 4 SO 1012,3 0,0
06.07.2020 06:00:00 21,7 16,6 - - - 1012,7 0,0
06.07.2020 05:00:00 22,6 16,8 5 3 SSO 1012,7 0,0
06.07.2020 04:00:00 22,8 17,0 6 3 SO 1013,0 0,0
06.07.2020 03:00:00 23,2 17,0 6 3 SO 1013,3 0,0
06.07.2020 02:00:00 23,8 16,8 5 3 OSO 1013,8 0,0
06.07.2020 01:00:00 24,6 17,1 5 3 SSO 1014,0 0,0
06.07.2020 00:00:00 25,4 17,1 6 3 SO 1014,2 0,0
05.07.2020 23:00:00 27,4 16,4 3 1 E 1014,0 0,0
05.07.2020 22:00:00 28,0 15,3 7 4 NNE 1013,9 0,0
05.07.2020 21:00:00 29,0 14,4 4 2 ENE 1013,6 0,0
05.07.2020 20:00:00 29,9 14,4 9 5 NNE 1013,7 0,0
05.07.2020 19:00:00 30,6 14,2 8 4 NE 1013,8 0,0
05.07.2020 18:00:00 30,5 14,2 8 4 E 1014,3 0,0
05.07.2020 17:00:00 30,7 13,5 7 4 NE 1014,9 0,0
05.07.2020 16:00:00 30,3 13,1 6 3 E 1015,6 0,0
05.07.2020 15:00:00 29,7 13,5 10 5 NE 1016,4 0,0
05.07.2020 14:00:00 29,2 13,8 7 4 E 1016,9 0,0
05.07.2020 13:00:00 28,8 13,9 9 5 NE 1017,3 0,0
05.07.2020 12:00:00 28,0 14,3 10 5 E 1017,7 0,0
05.07.2020 11:00:00 27,5 15,5 8 4 E 1017,8 0,0
05.07.2020 10:00:00 26,2 15,3 4 2 ENE 1017,9 0,0
05.07.2020 09:00:00 23,6 15,4 4 2 SO 1018,1 0,0
05.07.2020 08:00:00 22,1 15,2 8 4 SSO 1017,7 0,0
05.07.2020 07:00:00 20,9 14,8 - - - 1017,7 0,0
05.07.2020 06:00:00 20,6 14,7 6 4 SSO 1017,5 0,0
05.07.2020 05:00:00 21,0 15,1 6 3 SSO 1017,3 0,0
05.07.2020 04:00:00 21,1 15,0 - - - 1017,1 0,0
05.07.2020 03:00:00 21,4 15,2 8 4 SO 1017,4 0,0
05.07.2020 02:00:00 22,0 15,8 6 4 SSO 1017,3 0,0
05.07.2020 01:00:00 22,4 16,2 - - - 1017,4 0,0
05.07.2020 00:00:00 23,2 16,5 8 4 SO 1017,4 0,0
04.07.2020 23:00:00 25,3 15,3 4 2 S 1017,1 0,0
04.07.2020 22:00:00 25,5 14,6 6 3 E 1016,7 0,0
04.07.2020 21:00:00 26,5 14,3 8 5 E 1016,2 0,0
04.07.2020 20:00:00 27,4 14,1 8 4 E 1016,2 0,0
04.07.2020 19:00:00 28,6 14,4 4 2 ENE 1015,8 0,0
04.07.2020 18:00:00 28,8 14,2 5 3 ENE 1016,2 0,0
04.07.2020 17:00:00 28,9 13,9 4 2 NE 1016,4 0,0
04.07.2020 16:00:00 28,2 14,8 8 4 NNE 1016,8 0,0
04.07.2020 15:00:00 27,5 15,2 5 3 SE 1017,4 0,0
04.07.2020 14:00:00 26,2 15,9 4 2 ESE 1018,1 0,0
04.07.2020 13:00:00 24,6 16,3 6 3 NNE 1018,7 0,0
04.07.2020 12:00:00 24,2 16,2 6 3 NO 1018,9 0,0
04.07.2020 11:00:00 22,8 16,4 5 3 NO 1019,0 0,0
04.07.2020 10:00:00 21,0 17,0 8 4 OSO 1019,2 0,0
04.07.2020 09:00:00 19,9 17,5 8 4 O 1019,2 0,0
04.07.2020 08:00:00 19,2 17,5 6 4 O 1018,7 0,0
04.07.2020 07:00:00 18,8 18,0 3 2 N 1018,4 0,0
04.07.2020 06:00:00 18,3 18,3 11 6 S 1017,8 1,4
04.07.2020 05:00:00 17,9 - 10 5 SE 1018,2 1,2
04.07.2020 04:00:00 17,4 - 8 4 SSO 1018,1 3,4
04.07.2020 03:00:00 17,3 17,3 9 5 SO 1018,4 4,0
04.07.2020 02:00:00 17,8 17,8 3 2 O 1017,9 4,8
04.07.2020 01:00:00 18,0 16,3 5 3 ONO 1017,4 1,4
04.07.2020 00:00:00 19,4 15,9 15 8 OSO 1016,0 0,0
03.07.2020 23:00:00 23,9 17,2 5 3 ENE 1014,7 0,0
03.07.2020 22:00:00 24,1 16,6 9 5 E 1014,6 0,0
03.07.2020 21:00:00 24,8 16,0 12 7 ENE 1013,4 0,0
03.07.2020 20:00:00 25,9 15,9 16 9 NE 1013,0 0,0
03.07.2020 19:00:00 26,5 16,4 19 11 ENE 1012,0 0,0
03.07.2020 18:00:00 27,0 17,8 13 7 E 1011,8 0,0
03.07.2020 17:00:00 26,3 17,4 13 7 E 1012,1 0,0
03.07.2020 16:00:00 26,8 16,4 11 6 E 1012,4 0,0
03.07.2020 15:00:00 27,4 16,4 15 8 E 1012,0 0,0
03.07.2020 14:00:00 28,6 16,2 16 9 E 1012,0 0,0
03.07.2020 13:00:00 28,5 16,1 14 7 ENE 1012,4 0,0
03.07.2020 12:00:00 27,2 17,1 12 6 NNE 1012,7 0,0
03.07.2020 11:00:00 26,7 16,3 8 5 NE 1012,2 0,0
03.07.2020 10:00:00 25,2 17,1 6 3 NNE 1012,2 0,0
03.07.2020 09:00:00 23,7 18,4 5 3 O 1012,1 0,0
03.07.2020 08:00:00 22,6 18,8 4 2 O 1012,0 0,0
03.07.2020 07:00:00 22,0 18,0 3 2 OSO 1011,7 0,0
03.07.2020 06:00:00 21,2 18,4 5 3 NNE 1011,7 0,0
03.07.2020 05:00:00 21,4 18,6 6 3 NNE 1011,4 0,0
03.07.2020 04:00:00 22,1 18,3 8 5 NNE 1011,2 0,0
03.07.2020 03:00:00 22,9 18,2 5 3 N 1011,3 0,0
03.07.2020 02:00:00 22,9 18,0 3 1 OSO 1011,2 0,0
03.07.2020 01:00:00 23,1 18,2 7 4 NNO 1010,9 0,0
03.07.2020 00:00:00 24,5 16,0 6 3 ONO 1010,4 0,0
02.07.2020 23:00:00 26,4 16,3 6 3 OSO 1009,2 0,0
02.07.2020 22:00:00 28,9 17,7 4 2 SSE 1009,4 0,0
02.07.2020 21:00:00 29,4 17,2 6 3 NE 1008,5 0,0
02.07.2020 20:00:00 30,2 17,3 12 6 NE 1008,5 0,0
02.07.2020 19:00:00 30,8 17,1 9 5 ENE 1008,4 0,0
02.07.2020 18:00:00 31,5 16,7 11 6 ENE 1008,3 0,0
02.07.2020 17:00:00 31,7 16,4 9 5 E 1008,9 0,0
02.07.2020 16:00:00 31,5 16,7 11 6 E 1009,6 0,0
02.07.2020 15:00:00 30,9 16,1 9 5 NE 1010,3 0,0
02.07.2020 14:00:00 29,9 16,3 7 4 N 1010,9 0,0
02.07.2020 13:00:00 29,2 17,4 6 3 NO 1011,5 0,0

tt = Temperatura
td = dewpoint
ff = velocità del vento
dd = direzione del vento
ppp = reduced air pressure
rr = precipitazioni

Stazioni seguenti

WeatherPro
AMSI
MeteoEarth